Location: Newark
(47.5008°N, 9.7480°E)
Time: 20:45:50
(UTC+00:00)

ISS - Pass Details

Date: 25 July 2019
Orbit: 410 x 421 km, 51.6° (Epoch: 26 August)

Event Time Altitude Azimuth Distance (km) Brightness Sun altitude
Rises 23:03:56 0° 293° (WNW) 2,370 0.4 -22.7°
Reaches altitude 10° 23:06:05 10° 287° (WNW) 1,501 -0.7 -22.8°
Enters shadow 23:07:00 17° 281° (W) 1,149 -1.4 -22.8°
